CAPE
0 0 0 0 0 0 0 0 0 0 2 3 1 7 9 4 22 32 34 43 64 50 94 50 53 30 22 1 0 14 43 19 7 74 43 0 25 71 45 360 213 97 69 117
0 0 0 0 0 0 0 0 0 0 0 50 28 5 7 9 19 22 35 49 81 89 92 58 38 33 13 4 27 44 29 8 123 114 140 21 39 44 27 92 120 90 268 317
0 0 0 0 0 0 0 0 21 6 2 2 7 14 20 29 25 24 22 39 60 110 115 95 46 44 10 0 14 11 27 22 22 26 65 51 58 29 61 58 108 117 101 132
1 0 0 0 0 0 0 0 9 1 102 8 13 15 28 30 20 28 23 46 33 79 142 104 47 25 10 4 1 8 33 14 6 2 0 2 94 21 30 57 75 85 151 6
0 1 0 0 0 0 0 0 7 0 0 1 8 19 35 27 24 29 90 55 128 99 150 88 47 20 14 8 2 4 20 11 1 0 29 19 0 0 0 1 1 55 64 15
0 1 0 0 0 0 0 0 0 8 1 0 11 39 28 29 41 31 36 23 81 113 106 52 38 17 4 2 2 15 21 28 8 191 185 50 0 10 22 14 13 4 6 7
1 0 1 0 0 0 0 0 5 37 4 2 13 23 27 24 21 39 46 42 106 63 122 36 1 0 1 1 4 16 22 18 8 10 7 15 28 3 8 12 14 12 8 4
1 0 0 2 0 0 0 0 3 45 16 4 11 18 23 22 27 29 25 28 4 49 62 18 5 3 2 11 6 14 14 15 12 24 20 27 0 15 27 10 16 12 21 6
0 0 0 0 0 0 0 1 0 20 75 7 8 14 12 10 26 36 16 26 10 93 57 67 48 43 22 34 24 0 12 11 4 6 3 21 31 17 22 20 8 13 21 8
0 0 0 0 0 0 0 0 5 29 94 0 2 6 24 13 23 38 26 11 4 14 54 128 55 62 28 41 33 22 25 31 22 70 23 11 20 7 5 9 17 12 32 11
0 0 0 0 0 0 0 0 1 14 107 1 0 0 3 5 9 36 17 0 25 14 55 69 64 61 43 53 51 42 34 30 31 12 7 8 16 1 10 13 13 30 21 14
0 0 0 0 1 0 0 1 0 0 54 1 0 0 0 0 16 15 42 37 19 31 29 76 47 79 60 32 63 12 43 53 33 15 37 43 15 7 5 15 17 34 20 14
0 0 0 0 0 0 0 1 0 1 60 15 0 0 0 0 8 12 39 25 26 29 5 34 59 72 71 51 37 35 9 7 27 14 24 22 40 26 15 18 17 26 16 13
0 0 0 0 0 0 0 3 0 1 0 114 1 0 0 0 9 8 14 24 39 34 49 51 48 49 52 58 56 63 30 14 29 14 21 8 16 28 20 18 11 15 16 16
0 0 0 0 0 0 0 2 2 0 3 52 1 0 0 0 1 5 10 34 50 52 154 168 47 18 32 63 17 60 60 45 52 54 19 23 41 46 41 34 27 23 25 12
0 0 0 0 0 0 13 1 0 0 0 15 17 0 0 0 0 3 7 20 50 55 77 63 42 17 39 51 62 37 34 30 26 30 24 26 25 24 15 42 18 10 7 10
0 0 0 0 0 4 8 5 0 0 1 14 7 0 0 0 4 1 16 27 47 41 48 65 38 37 44 110 72 36 39 42 36 25 28 37 25 20 18 20 8 4 6 8
0 0 0 0 0 0 10 0 0 0 5 4 4 0 0 0 0 14 4 49 47 47 35 42 44 27 33 57 35 30 30 22 24 30 31 28 20 23 16 16 10 14 12 10
0 0 0 6 6 5 1 0 0 0 0 8 0 0 0 0 0 0 29 39 57 5 71 35 4 4 18 18 18 16 13 14 12 7 11 12 16 20 14 15 17 12 14 19
0 2 0 2 3 0 0 1 1 4 4 0 7 0 0 0 2 17 15 15 8 16 2 25 23 3 2 3 0 0 3 11 15 16 8 11 15 18 19 22 27 25 26 11
8 0 14 9 0 4 0 8 1 0 0 0 0 0 0 0 6 1 0 14 1 21 22 36 6 29 6 0 0 0 0 2 8 13 12 9 5 5 6 13 17 17 16 13
0 9 3 6 9 2 0 0 0 0 0 0 0 0 0 0 0 2 0 0 0 5 0 12 6 17 0 0 0 0 0 0 0 4 11 9 5 4 0 1 4 7 12 3
12 6 2 2 2 0 0 0 0 0 0 0 0 1 0 0 0 0 0 0 0 0 8 2 12 21 0 0 0 0 1 1 1 1 1 2 5 2 4 0 0 0 1 2
8 2 0 0 0 0 0 0 0 0 0 0 0 0 1 0 0 0 0 0 0 0 0 0 7 0 0 0 0 0 0 0 1 1 0 1 4 15 52 34 51 0 20 0
2 0 0 0 0 0 0 0 0 0 0 0 0 0 0 1 0 0 0 0 0 0 0 0 0 0 0 0 0 0 0 1 0 1 3 5 2 5 13 27 70 34 0 0
1 0 0 0 0 0 0 0 0 0 0 0 0 0 0 0 0 0 0 0 0 0 0 0 0 0 0 0 0 1 3 3 4 6 7 7 9 8 12 25 13 0 0 0
0 0 0 2 1 6 0 0 0 0 0 0 0 0 0 0 0 0 0 0 0 0 0 0 0 0 0 0 0 0 0 2 5 14 13 11 8 11 15 27 39 8 5 0
CIN
-0 -0 -0 -0 -0 -0 -0 -0 -0 -0 -4 -0 -0 -0 -0 -13 -0 -0 -0 -0 -0 -0 -0 -0 -0 -0 -0 -0 -0 -0 -0 -0 -0 -1 -1 -13 -2 -0 -0 -1 -0 -0 -0 -4
-0 -0 -0 -0 -0 -0 -0 -0 -0 -0 -0 -0 -0 -0 -0 -0 -0 -0 -0 -0 -0 -0 -0 -0 -1 -0 -0 -1 -0 -0 -0 -0 -0 -0 -0 -10 -3 -1 -0 -0 -0 -0 -0 -1
-0 -0 -0 -0 -0 -0 -0 -0 -0 -0 -0 -0 -0 -0 -0 -0 -0 -0 -0 -0 -0 -0 -0 -0 -0 -0 -1 -1 -0 -0 -0 -0 -0 -0 -16 -14 -1 -4 -0 -1 -0 -0 -0 -7
-0 -0 -0 -0 -0 -0 -0 -0 -0 -0 -0 -0 -0 -0 -0 -0 -0 -0 -0 -0 -5 -0 -0 -0 -0 -0 -0 -0 -0 -0 -0 -0 -0 -0 -0 -57 -1 -7 -0 -1 -0 -0 -25 -19
-0 -0 -0 -0 -0 -0 -0 -0 -0 -0 -0 -0 -0 -0 -0 -0 -0 -0 -0 -0 -0 -0 -0 -0 -0 -0 -0 -0 -1 -0 -0 -0 -0 -0 -47 -67 -0 -0 -0 -106 -231 -4 -33 -88
-0 -0 -0 -0 -0 -0 -0 -0 -0 -0 -0 -0 -0 -0 -0 -0 -0 -0 -0 -0 -0 -0 -0 -0 -0 -0 -0 -0 -0 -0 -0 -0 -0 -0 -10 -42 -0 -0 -0 -0 -0 -0 -0 -0
-0 -0 -0 -0 -0 -0 -0 -0 -0 -0 -0 -0 -0 -0 -0 -0 -0 -0 -0 -3 -0 -3 -0 -0 -0 -0 -0 -0 -0 -0 -0 -0 -0 -0 -0 -7 -0 -0 -0 -0 -0 -0 -0 -0
-0 -0 -0 -0 -0 -0 -0 -0 -0 -0 -0 -0 -0 -0 -0 -0 -0 -0 -0 -0 -1 -0 -0 -1 -0 -0 -0 -0 -0 -0 -0 -0 -0 -0 -0 -0 -0 -0 -0 -0 -0 -0 -0 -0
-0 -0 -0 -0 -0 -0 -0 -0 -0 -0 -0 -0 -0 -0 -0 -0 -0 -0 -0 -0 -0 -0 -0 -0 -0 -0 -0 -0 -0 -0 -0 -0 -0 -0 -0 -0 -0 -0 -0 -0 -0 -0 -0 -0
-0 -0 -0 -0 -0 -0 -0 -0 -0 -0 -0 -0 -0 -0 -0 -0 -0 -0 -0 -0 -0 -1 -0 -0 -2 -0 -0 -0 -0 -0 -0 -0 -0 -0 -0 -0 -0 -0 -0 -0 -0 -0 -0 -0
-0 -0 -0 -0 -0 -0 -0 -0 -0 -0 -0 -0 -0 -0 -0 -0 -0 -0 -0 -1 -7 -0 -0 -0 -0 -0 -0 -0 -0 -0 -0 -0 -0 -0 -0 -0 -0 -0 -0 -0 -0 -0 -0 -0
-0 -0 -0 -0 -0 -0 -0 -0 -0 -0 -0 -0 -0 -0 -0 -0 -0 -0 -1 -0 -0 -0 -0 -0 -0 -0 -0 -0 -0 -0 -0 -0 -0 -0 -0 -0 -0 -0 -0 -0 -0 -0 -0 -0
-0 -0 -0 -0 -0 -0 -0 -0 -0 -0 -0 -0 -0 -0 -0 -0 -0 -0 -0 -0 -0 -0 -0 -0 -0 -0 -0 -0 -0 -0 -0 -0 -0 -0 -0 -0 -0 -0 -0 -0 -0 -0 -0 -0
-0 -0 -0 -0 -0 -0 -0 -0 -0 -0 -0 -0 -0 -0 -0 -0 -0 -0 -0 -0 -2 -0 -0 -0 -0 -0 -0 -0 -0 -0 -0 -0 -0 -0 -0 -0 -0 -0 -0 -0 -0 -0 -0 -0
-0 -0 -0 -0 -0 -0 -0 -0 -0 -0 -0 -0 -0 -0 -0 -0 -0 -0 -0 -0 -0 -26 -0 -0 -0 -0 -0 -0 -0 -0 -0 -0 -0 -0 -0 -3 -0 -0 -0 -0 -0 -0 -0 -0
-0 -0 -0 -0 -0 -0 -0 -0 -0 -0 -0 -0 -0 -0 -0 -0 -0 -0 -0 -0 -0 -0 -5 -0 -0 -0 -0 -0 -0 -0 -0 -0 -0 -0 -0 -0 -0 -0 -0 -0 -0 -0 -0 -0
-0 -0 -0 -0 -0 -0 -0 -0 -0 -0 -0 -0 -0 -0 -0 -0 -0 -0 -0 -1 -1 -0 -0 -0 -0 -0 -0 -0 -0 -0 -0 -0 -0 -0 -0 -0 -0 -0 -0 -0 -0 -0 -0 -0
-0 -0 -0 -0 -0 -0 -0 -0 -0 -0 -0 -0 -0 -0 -0 -0 -0 -24 -2 -3 -5 -1 -0 -0 -0 -0 -0 -0 -0 -0 -0 -0 -0 -0 -0 -0 -0 -0 -0 -0 -0 -0 -0 -0
-0 -0 -0 -0 -0 -0 -0 -0 -0 -0 -0 -0 -0 -0 -0 -0 -0 -3 -7 -15 -1 -20 -2 -1 -0 -0 -0 -0 -0 -0 -0 -0 -0 -0 -0 -0 -0 -0 -0 -0 -0 -0 -0 -0
-0 -0 -0 -0 -0 -0 -0 -0 -0 -0 -0 -0 -0 -0 -0 -0 -0 -5 -4 -17 -20 -0 -17 -8 -2 -24 -0 -0 -0 -0 -0 -0 -0 -0 -0 -0 -0 -0 -0 -0 -0 -0 -0 -0
-0 -0 -0 -0 -0 -0 -0 -0 -0 -0 -0 -0 -0 -0 -0 -0 -1 -0 -0 -16 -7 -0 -2 -1 -5 -0 -23 -0 -0 -0 -0 -0 -0 -0 -0 -0 -0 -0 -0 -0 -0 -0 -0 -0
-0 -0 -0 -0 -0 -0 -0 -0 -0 -0 -0 -0 -0 -0 -0 -0 -0 -0 -0 -0 -0 -0 -0 -2 -3 -5 -0 -0 -0 -0 -0 -0 -0 -0 -0 -0 -0 -0 -0 -0 -0 -0 -0 -0
-0 -0 -0 -0 -0 -0 -0 -0 -0 -0 -0 -0 -0 -0 -0 -0 -0 -0 -0 -0 -0 -0 -0 -1 -0 -16 -0 -0 -0 -0 -0 -0 -0 -0 -0 -0 -0 -0 -0 -0 -0 -0 -0 -0
-0 -0 -0 -0 -0 -0 -0 -0 -0 -0 -0 -0 -0 -0 -0 -0 -0 -0 -0 -0 -0 -0 -0 -0 -0 -0 -0 -0 -0 -0 -0 -0 -0 -0 -0 -0 -0 -4 -9 -32 -19 -0 -23 -0
-0 -0 -0 -0 -0 -0 -0 -0 -0 -0 -0 -0 -0 -0 -0 -0 -0 -0 -0 -0 -0 -0 -0 -0 -0 -0 -0 -0 -0 -0 -0 -0 -0 -0 -0 -0 -0 -0 -0 -2 -6 -14 -0 -0
-0 -0 -0 -0 -0 -0 -0 -0 -0 -0 -0 -0 -0 -0 -0 -0 -0 -0 -0 -0 -0 -0 -0 -0 -0 -0 -0 -0 -0 -0 -0 -0 -0 -0 -0 -0 -0 -0 -0 -0 -0 -0 -0 -0
-0 -0 -0 -0 -0 -0 -0 -0 -0 -0 -0 -0 -0 -0 -0 -0 -0 -0 -0 -0 -0 -0 -0 -0 -0 -0 -0 -0 -0 -0 -0 -0 -0 -0 -0 -0 -0 -0 -0 -0 -0 -0 -0 -0
Wind_Speed
23 25 26 24 23 21 7 8 5 10 10 9 8 10 12 2 14 15 12 13 14 14 18 17 16 9 13 15 14 11 6 8 8 12 20 22 25 20 26 7 16 13 9 5
22 24 25 25 21 18 4 7 7 2 6 8 8 12 13 10 13 13 11 12 13 14 18 13 14 11 12 13 12 11 12 6 5 11 21 21 21 20 25 18 15 11 7 5
21 24 25 25 21 20 8 3 3 5 7 9 14 14 14 16 14 11 12 13 13 18 19 16 12 18 4 10 4 7 10 9 9 7 10 8 22 19 21 14 6 12 9 14
20 23 25 26 24 21 4 4 4 4 5 8 13 16 17 18 16 15 11 13 18 21 16 17 12 11 12 9 5 8 9 8 13 15 17 16 19 20 22 18 17 11 17 17
18 21 23 24 25 23 9 3 4 4 4 13 14 15 17 18 20 16 14 14 20 20 13 8 12 9 11 5 7 13 7 7 13 9 18 19 23 31 29 17 18 5 20 21
17 19 22 22 24 17 5 3 2 3 9 13 12 15 18 19 22 14 19 18 16 14 12 9 11 10 8 12 14 13 6 6 8 6 11 13 16 21 18 14 20 16 14 10
15 17 20 20 20 20 6 4 4 4 9 12 13 18 21 19 20 18 23 19 17 12 15 5 6 7 9 9 10 7 9 10 5 7 11 8 7 18 9 18 18 19 15 15
13 15 17 17 17 19 7 6 5 4 9 12 13 19 20 18 21 18 23 20 17 17 6 3 7 4 3 2 2 4 5 5 4 6 13 10 24 20 10 7 11 18 16 18
12 14 14 16 18 17 6 8 5 3 3 14 18 17 21 15 19 19 23 20 18 20 11 3 17 9 8 9 7 8 5 6 5 9 11 10 18 21 10 3 11 18 17 18
11 12 12 15 17 16 9 6 7 3 4 12 14 14 17 15 18 14 17 21 17 22 12 12 9 11 10 10 12 13 9 10 15 14 9 8 24 22 2 3 8 15 15 16
10 9 11 14 16 16 10 6 6 5 4 11 13 15 16 15 15 12 15 7 19 12 15 10 7 10 11 11 14 12 16 8 7 11 11 11 23 12 10 6 7 9 14 15
7 8 10 12 14 15 14 3 4 3 3 6 3 8 10 11 11 8 9 12 14 9 7 9 6 8 7 17 11 18 14 8 9 9 8 4 11 9 9 9 6 12 15 16
4 7 9 11 13 13 11 6 6 2 3 1 10 11 9 11 9 4 8 8 8 9 4 4 6 8 11 13 16 11 10 13 15 4 15 14 14 14 14 13 14 14 17 17
2 6 8 9 10 12 12 6 7 4 3 3 7 10 9 8 9 7 3 7 7 6 5 5 7 7 12 9 13 15 11 11 10 12 15 6 16 15 14 14 14 15 18 18
1 4 7 8 8 9 8 3 5 6 4 4 4 9 11 9 9 10 10 9 10 6 7 8 9 4 4 13 10 13 13 11 10 9 13 8 11 14 15 13 16 17 17 19
0 4 7 9 7 7 3 3 4 8 4 2 3 4 11 10 7 9 12 9 7 9 5 6 12 21 5 6 12 15 16 19 16 12 13 12 10 13 16 14 15 16 16 17
1 4 7 7 8 4 2 4 6 9 5 2 4 3 6 8 4 8 5 8 6 4 4 6 10 11 10 12 13 13 14 15 14 14 11 14 15 11 12 14 13 14 16 16
0 5 3 3 3 6 3 5 5 9 1 3 3 2 4 7 5 4 5 5 5 7 4 5 7 7 6 9 13 11 11 12 11 10 12 10 10 12 14 14 13 16 16 16
1 2 4 5 2 2 2 4 9 3 2 2 3 2 2 5 3 2 4 4 3 3 5 6 5 5 6 7 9 9 9 11 11 11 12 13 14 14 15 15 15 14 15 16
1 3 3 2 2 4 8 1 4 2 2 2 3 2 3 5 4 3 3 2 1 1 3 1 1 4 5 5 6 6 6 7 7 8 10 11 11 11 12 12 11 12 12 13
2 1 1 2 2 3 2 2 1 1 2 3 0 4 2 3 4 4 3 3 3 3 4 5 1 3 5 2 3 4 5 5 6 7 7 8 8 9 10 10 10 9 10 11
3 2 2 1 2 1 2 2 2 5 3 4 3 2 3 3 2 3 2 3 2 3 3 2 3 4 6 5 1 3 5 5 7 8 8 8 9 9 9 10 8 8 7 7
1 1 2 3 2 4 5 6 4 3 5 5 5 4 1 4 2 2 2 2 3 3 2 4 2 6 6 5 2 3 4 4 7 8 9 9 10 8 7 9 8 9 8 6
2 3 4 6 5 6 5 4 3 4 5 6 4 4 2 1 2 1 3 2 3 3 3 6 3 6 5 3 2 5 4 4 7 10 11 11 10 10 7 6 5 3 5 6
4 4 5 7 5 2 2 1 2 4 6 5 4 2 2 2 1 3 2 2 5 5 4 2 2 5 5 5 5 6 6 7 9 10 10 10 11 10 10 3 6 0 2 5
4 6 5 4 5 5 4 5 5 5 5 3 0 2 1 5 3 5 7 4 6 3 2 1 2 5 6 6 6 7 8 9 10 10 10 10 10 10 10 6 1 2 2 3
5 5 5 7 5 5 7 7 6 7 6 5 3 4 7 2 4 5 5 5 4 0 2 2 3 5 6 6 6 9 9 9 10 11 10 10 10 10 8 9 6 7 4 6
Wind_Direction
12 9 8 9 3 343 300 36 67 339 322 44 38 39 15 14 344 343 333 325 317 328 329 315 310 340 295 31 359 328 15 298 280 255 196 219 201 199 213 213 222 221 207 136
15 11 8 8 6 356 325 70 76 16 14 39 29 28 15 20 3 350 334 325 318 319 319 323 314 301 328 20 22 359 359 291 267 232 197 208 207 201 201 194 207 223 219 110
19 15 10 7 1 346 310 55 59 348 13 45 25 16 9 1 12 340 325 313 321 322 323 311 303 304 312 12 47 4 333 281 287 315 220 233 201 198 198 210 192 217 210 111
22 18 13 7 1 341 323 58 39 325 22 6 32 2 8 355 354 344 336 326 329 331 312 305 294 316 327 336 125 6 340 284 321 301 280 267 203 201 198 190 215 215 91 57
27 22 16 10 359 336 42 92 22 43 10 18 30 10 9 353 349 360 343 325 323 308 302 304 293 311 312 329 323 344 319 289 322 291 238 77 54 22 19 31 360 84 97 67
30 27 22 15 1 348 45 60 132 318 12 33 24 8 357 350 1 348 347 343 337 347 346 305 277 277 288 282 295 306 293 318 328 238 133 104 47 2 32 48 28 23 34 1
33 29 28 21 5 359 38 25 335 350 30 33 13 8 3 354 359 342 9 2 351 325 301 244 182 210 237 253 284 290 280 305 256 294 304 71 108 17 8 60 37 20 31 5
34 32 28 20 16 356 28 16 8 351 30 27 1 15 0 352 360 5 18 359 340 330 324 131 130 135 189 153 19 333 247 287 342 334 76 123 37 359 340 346 44 10 2 4
35 33 22 21 17 353 326 41 3 19 322 24 5 10 2 358 359 358 16 14 349 355 56 67 50 32 15 12 7 345 241 217 347 63 69 44 355 338 328 268 50 356 351 10
37 30 19 18 15 360 334 48 354 343 345 38 6 13 358 354 359 5 8 25 4 1 29 43 25 42 3 20 28 3 18 40 38 41 76 53 350 339 260 9 2 327 0 11
38 23 18 17 16 2 335 70 31 341 346 51 19 16 3 354 6 6 334 1 15 7 27 19 22 23 18 48 32 21 23 26 20 33 49 28 346 3 40 322 306 328 15 14
34 19 18 13 9 3 328 28 40 2 302 9 35 47 17 4 360 336 348 37 21 21 354 11 21 32 30 28 49 28 43 20 52 46 57 347 8 19 10 5 360 4 19 19
28 23 20 9 5 1 342 5 4 307 312 58 40 15 2 12 3 14 332 36 0 3 19 299 7 54 14 33 30 37 35 39 53 29 56 31 20 15 15 16 16 14 31 28
19 23 14 3 359 350 325 30 8 5 319 299 72 47 25 353 350 28 49 292 48 13 15 21 41 36 8 44 51 39 18 15 65 60 25 43 26 18 10 17 22 21 40 36
16 14 359 349 343 327 291 49 28 19 348 344 14 51 30 21 0 16 29 19 57 51 37 47 32 43 27 63 51 42 23 12 36 39 29 29 17 24 23 27 31 29 28 38
345 360 345 342 330 293 47 13 78 10 358 316 347 103 31 18 27 18 42 41 35 54 45 49 61 29 52 58 59 45 43 51 69 63 57 56 52 41 41 40 40 43 44 33
331 348 347 346 327 296 38 26 4 335 312 297 315 49 54 351 15 48 12 52 30 65 40 30 68 74 58 59 67 70 64 66 58 48 53 52 54 54 54 40 42 52 49 44
334 341 352 312 24 137 175 56 345 310 345 258 314 6 37 1 28 28 8 17 49 12 39 25 60 68 52 62 65 60 67 71 66 74 83 89 63 37 41 40 39 31 39 36
39 323 274 247 330 7 32 334 283 284 317 315 275 358 38 334 8 20 19 347 29 50 33 25 46 57 52 49 62 64 49 37 48 48 35 40 37 36 37 37 22 31 27 22
183 270 47 324 260 353 250 260 354 0 295 219 286 282 70 326 330 32 351 354 4 349 63 240 51 91 41 60 59 61 47 48 34 39 29 22 25 24 22 26 27 21 23 22
66 101 199 51 104 243 325 304 279 174 248 199 353 0 359 82 346 357 18 309 330 297 79 319 242 147 156 156 37 32 21 10 11 9 18 11 7 8 8 8 14 16 20 18
164 305 148 123 260 234 255 222 208 223 202 162 217 109 355 94 310 298 33 310 307 304 335 292 266 115 164 206 224 319 337 341 341 341 346 350 344 349 346 349 4 7 6 11
91 309 176 207 161 230 222 187 205 197 175 156 168 165 267 161 201 281 283 309 268 304 290 247 270 142 218 234 218 277 302 311 319 328 335 330 339 327 338 333 337 342 349 12
217 210 216 219 182 241 209 230 171 109 162 156 155 120 222 155 224 266 247 324 286 271 238 246 215 172 206 184 235 271 283 308 316 319 319 318 323 323 324 303 326 261 317 344
243 228 243 214 246 268 233 71 128 183 139 143 142 139 215 193 217 241 263 241 252 232 251 304 21 150 196 226 231 266 285 306 312 315 314 313 311 303 295 272 264 323 346 354
245 232 248 237 243 214 190 209 197 155 174 127 130 125 220 230 232 198 212 235 234 218 280 18 238 200 222 246 261 274 290 306 306 306 308 309 309 305 299 304 107 96 193 277
226 232 238 264 236 225 205 218 204 164 187 195 169 186 214 206 226 226 210 224 272 344 196 239 241 254 255 262 285 291 293 292 299 302 305 307 307 296 288 272 204 213 232 206